www.pogodaiklimat.ru

Погода и климат >> Архив погоды >> Австралия >> Западная Австралия >> Параберду


ПОГОДА в Параберду

  • Прогноз погоды в Параберду
  • Монитор погоды в Параберду

АРХИВ ПОГОДЫ в Параберду

Время (UTC), дата Ветер
(напр.,м/с)
 
Видим.   Явления Облачность Т
(С)
Тd
(С)
f
(%)
Тe
(С)
Тes
(С)
Комфортность P
(гПа)
Po
(гПа)
Тmin
(С)
Tmax
(С)
R
(мм)
R24
(мм)
S
(см)
10 11.08 Ю 4 н/о н/о +24.7 -2.0 17 +23 +23 комфорт 1017.5 968.7
12 11.08 ЮВ 3 н/о н/о +19.4 -2.8 22 +20 +20 1018.9 970.0
13 11.08 В 2 н/о н/о +17.8 -3.0 24 +18 +18 1019.2 970.3 +28.0
15 11.08 В 2 н/о н/о +16.3 -2.2 28 +17 +17 1020.0 971.1
16 11.08 СВ 3 н/о н/о +15.1 -2.8 29 +15 +15 1019.5 970.6
18 11.08 СВ 3 н/о н/о +13.3 -3.4 31 +12 +12 1018.6 969.7
19 11.08 СВ 3 н/о н/о +14.3 -2.6 31 +14 +14 1018.2 969.3
21 11.08 СВ 4 н/о н/о +13.8 -2.2 33 +13 +13 1018.3 969.4
22 11.08 СВ 4 н/о н/о +13.0 -2.1 35 +12 +12 1018.9 970.0
00 12.08 СВ 3 н/о н/о +18.7 -0.7 27 +19 +19 1020.3 971.3
01 12.08 В 7 н/о н/о +22.0 -1.3 21 +21 +21 комфорт 1020.6 971.6 +12.7
03 12.08 СВ 6 н/о н/о +26.0 -2.6 15 +24 +24 комфорт 1019.8 970.9
04 12.08 СВ 3 н/о н/о +27.1 -2.7 14 +25 +25 комфорт 1018.9 970.0
06 12.08 В 4 н/о н/о +28.2 -1.8 14 +25 +25 комфорт 1017.0 968.2
07 12.08 СВ 4 н/о н/о +28.5 -2.6 13 +26 +26 жарко 1016.3 967.5
09 12.08 З 4 н/о н/о +28.6 -1.5 14 +26 +26 жарко 1016.6 967.8
10 12.08 ЮЗ 3 н/о н/о +26.8 -2.0 15 +24 +24 комфорт 1017.2 968.4
12 12.08 В 2 н/о н/о +21.8 -1.5 21 +21 +21 комфорт 1018.5 969.6
13 12.08 В 3 н/о н/о +19.5 -2.8 22 +20 +20 1018.6 969.7 +29.5
15 12.08 СЗ 3 н/о н/о +17.8 -3.0 24 +18 +18 1018.4 969.5
16 12.08 СВ 3 н/о н/о +16.5 -3.0 26 +17 +17 1018.0 969.2
18 12.08 В 4 н/о н/о +16.1 -2.4 28 +16 +16 1017.1 968.3
19 12.08 З 4 н/о н/о +15.5 -2.9 28 +15 +15 1017.6 968.8
21 12.08 В 3 н/о н/о +12.7 -3.5 32 +12 +12 1017.7 968.9
22 12.08 В 4 н/о н/о +14.0 -2.4 32 +13 +13 1018.2 969.3
00 13.08 СВ 5 н/о н/о +20.0 -1.2 24 +20 +20 1018.6 969.7
01 13.08 СВ 6 н/о н/о +22.6 -1.5 20 +21 +21 комфорт 1019.0 970.1 +12.8
03 13.08 С 6 н/о н/о +28.0 -2.0 14 +25 +25 комфорт 1018.2 969.3
04 13.08 СЗ 6 н/о н/о +27.9 -3.0 13 +25 +25 комфорт 1017.1 968.3
09 13.08 СЗ 5 н/о н/о +28.7 -2.4 13 +26 +26 жарко 1015.2 966.5
10 13.08 С 5 н/о 10/0
[]
+27.7 -2.2 14 +25 +25 комфорт 1015.5 966.8
12 13.08 С 3 н/о н/о +25.4 -1.4 17 +24 +24 комфорт 1016.6 967.8
13 13.08 СВ 3 н/о 10/0
[]
+23.7 -1.3 19 +22 +22 комфорт 1016.8 968.0 +31.1
15 13.08 С 3 н/о н/о +24.0 -1.8 18 +22 +22 комфорт 1016.8 968.0
16 13.08 В 2 н/о 10/0
[]
+22.4 -2.3 19 +21 +21 комфорт 1016.6 967.8
18 13.08 С 3 н/о н/о +22.0 -2.7 19 +21 +21 комфорт 1015.7 967.0
19 13.08 Ю 3 н/о 10/0
[]
+21.6 -2.3 20 +21 +21 комфорт 1015.5 966.8
21 13.08 ЮЗ 2 н/о н/о +20.1 +1.0 28 +21 +21 комфорт 1016.1 967.3
22 13.08 В 2 н/о 10/0
[]
+18.6 +0.7 30 +19 +19 1016.2 967.4
00 14.08 штиль 0 н/о н/о +21.0 +0.2 25 +21 +21 комфорт 1016.9 968.1
01 14.08 З 4 н/о 10/0
[]
+22.4 +0.9 24 +22 +24 комфорт 1017.4 968.6 +17.1
03 14.08 ЮЗ 5 н/о н/о +23.5 +5.9 32 +24 +24 комфорт 1017.1 968.3
04 14.08 З 6 н/о 8/0
[]
+23.9 +10.2 42 +25 +28 комфорт 1016.5 967.7
06 14.08 З 9 н/о н/о +23.3 +14.3 57 +27 +27 душно 1015.4 966.7
07 14.08 З 5 н/о 10/10 1000 м
[]
+22.9 +14.2 58 +26 +26 жарко 1015.1 966.4
09 14.08 З 7 н/о н/о +23.4 +11.1 46 +26 +26 жарко 1014.9 966.2
10 14.08 З 6 н/о 10/0
[]
+23.2 +9.2 41 +25 +25 комфорт 1015.4 966.7
12 14.08 З 5 н/о н/о +21.8 +10.6 49 +24 +24 комфорт 1016.8 968.0
13 14.08 З 3 н/о в посл. час дождь со снегом 9/0
[]
+21.3 +9.5 47 +23 +23 комфорт 1017.0 968.2 +25.6
15 14.08 З 4 н/о н/о +20.2 +11.1 56 +22 +22 комфорт 1017.0 968.2
16 14.08 З 2 н/о ливневой дождь 10/10 1500 м
[]
+18.7 +13.8 73 +20 +20 1017.2 968.4
18 14.08 З 3 н/о н/о +18.7 +13.1 70 +20 +20 1017.2 968.4
19 14.08 Ю 2 н/о 10/10 1000 м
[]
+17.9 +10.0 60 +18 +18 1017.0 968.2
21 14.08 Ю 3 н/о н/о +16.6 +7.5 55 +16 +16 1017.3 968.5
22 14.08 ЮЗ 2 н/о 1/1 1500 м
[]
+14.9 +7.0 59 +15 +15 1017.6 968.8
00 15.08 ЮЗ 2 н/о н/о +16.1 +7.3 56 +16 +16 1019.3 970.4
01 15.08 Ю 3 н/о 10/10 1000 м
[]
+18.0 +7.1 49 +18 +18 1019.2 970.3 +14.5
03 15.08 Ю 4 н/о н/о +20.7 +7.3 42 +22 +22 комфорт 1018.6 969.7
04 15.08 ЮЗ 5 н/о 10/10 1500 м
[]
+20.5 +7.2 42 +22 +22 комфорт 1018.0 969.2
06 15.08 ЮЗ 4 н/о н/о +22.2 +6.4 36 +23 +23 комфорт 1016.4 967.6
07 15.08 ЮЗ 5 н/о н/о +21.8 +4.8 33 +22 +22 комфорт 1015.8 967.1
09 15.08 ЮЗ 5 н/о н/о +22.1 +4.2 31 +22 +22 комфорт 1016.1 967.3
10 15.08 ЮЗ 4 н/о 1/0 2000 м
[]
+21.0 +3.2 31 +22 +22 комфорт 1016.7 967.9
12 15.08 Ю 5 н/о н/о +19.5 +1.5 30 +20 +20 1018.4 969.5
13 15.08 Ю 5 н/о н/о +18.7 +0.3 29 +18 +18 1018.8 969.9 +23.4
15 15.08 ЮВ 5 н/о н/о +17.2 -0.5 30 +17 +17 1019.1 970.2
16 15.08 ЮВ 5 н/о н/о +16.0 -0.7 32 +15 +15 1019.3 970.4
18 15.08 ЮВ 4 н/о н/о +15.5 -1.1 32 +15 +15 1018.7 969.8
19 15.08 В 2 н/о н/о +12.4 -1.1 39 +12 +12 1018.8 969.9
21 15.08 ЮЗ 2 н/о н/о +12.1 -2.5 36 +12 +12 1018.9 970.0
22 15.08 С 3 н/о н/о +10.0 -3.0 40 +9 +9 1019.0 970.1
00 16.08 В 6 н/о н/о +14.8 -0.5 35 +13 +13 1020.3 971.3
01 16.08 В 5 н/о н/о +17.2 +3.1 39 +17 +17 1020.4 971.4 +7.8
03 16.08 В 5 н/о н/о +21.0 +0.2 25 +21 +21 комфорт 1020.0 971.1
04 16.08 В 4 н/о н/о +21.9 -1.4 21 +21 +21 комфорт 1019.0 970.1
06 16.08 В 3 н/о н/о +23.9 -6.2 13 +22 +22 комфорт 1017.2 968.4
07 16.08 ЮВ 3 н/о н/о +25.1 -6.3 12 +23 +23 комфорт 1016.8 968.0
09 16.08 ЮЗ 4 н/о н/о +24.4 -6.8 12 +22 +22 комфорт 1016.9 968.1
10 16.08 Ю 4 н/о н/о +22.4 -7.3 13 +21 +21 комфорт 1017.3 968.5
12 16.08 Ю 3 н/о н/о +18.7 -6.8 17 +19 +19 1018.6 969.7
13 16.08 штиль 0 н/о н/о +14.4 -8.2 20 +15 +15 1018.9 970.0 +25.6
15 16.08 Ю 1 н/о н/о +12.0 -8.5 23 +13 +13 1019.2 970.3
16 16.08 ЮВ 2 н/о н/о +10.1 -8.0 27 +10 +10 1018.9 970.0
18 16.08 штиль 0 н/о н/о +8.6 -8.8 28 +9 +9 1019.0 970.1
19 16.08 З 1 н/о н/о +9.9 -8.7 26 +10 +10 1018.8 969.9
21 16.08 штиль 0 н/о н/о +5.4 -10.3 31 +5 +5 1019.2 970.3
22 16.08 З 2 н/о н/о +8.3 -8.7 29 +7 +7 1020.0 971.1
00 17.08 Ю 3 н/о н/о +14.0 -2.4 32 +14 +14 1021.6 972.6
01 17.08 В 6 н/о н/о +17.0 -0.2 31 +16 +16 1022.0 973.0 +5.1
03 17.08 ЮВ 4 н/о н/о +19.1 +1.6 31 +19 +19 1021.6 972.6
04 17.08 ЮВ 5 н/о н/о +20.3 +0.7 27 +20 +20 1021.0 972.0
06 17.08 ЮЗ 5 н/о н/о +22.1 -1.9 20 +21 +21 комфорт 1019.5 970.6
07 17.08 Ю 4 н/о н/о +22.5 +0.9 24 +22 +22 комфорт 1019.3 970.4
09 17.08 Ю 4 н/о н/о +22.2 +1.8 26 +22 +22 комфорт 1019.7 970.8
10 17.08 Ю 4 н/о н/о +20.8 +1.6 28 +21 +21 комфорт 1020.3 971.3
12 17.08 Ю 3 н/о н/о +17.4 -0.3 30 +18 +18 1021.6 972.6
13 17.08 Ю 4 н/о н/о +18.1 -0.2 29 +18 +18 1022.2 973.2 +23.2
15 17.08 ЮВ 7 н/о н/о +16.5 -3.6 25 +15 +15 1022.5 973.4
16 17.08 ЮВ 5 н/о н/о +15.5 -3.4 27 +15 +15 1022.9 973.8
18 17.08 ЮВ 5 н/о н/о +14.1 -3.6 29 +13 +13 1023.2 974.1
19 17.08 ЮВ 6 н/о н/о +13.9 -3.4 30 +12 +12 1023.1 974.0
21 17.08 ЮВ 8 н/о н/о +12.5 -4.1 31 +10 +10 1022.8 973.7
22 17.08 В 9 н/о н/о +12.1 -4.5 31 +9 +9 1023.2 974.1
00 18.08 В 7 н/о н/о +13.2 -4.4 29 +11 +11 1024.9 975.7
01 18.08 В 8 н/о н/о +14.7 -4.6 26 +13 +13 1025.4 976.2 +11.8
03 18.08 ЮВ 7 н/о н/о +17.8 -6.1 19 +17 +17 1024.9 975.7
04 18.08 В 7 н/о н/о +19.3 -6.3 17 +19 +19 1023.9 974.8
06 18.08 ЮВ 7 н/о н/о +21.4 -9.1 12 +20 +20 1021.9 972.9
07 18.08 ЮВ 6 н/о н/о +22.0 -8.7 12 +20 +20 1021.4 972.4

 

Местоположение метеостанции Параберду (Западная Австралия, Австралия): широта -23.17 долгота 117.75 высота над уровнем моря 424 м.

В архиве по умолчанию представлена погода в Параберду за последнюю неделю. Архивные данные за месяц целиком и за предыдущие месяцы, начиная с января 2011 года, Вы можете получить, выбрав интересующий диапазон дат из раскрывающегося списка и нажав кнопку "Ввод!".


*Определитесь, кто Вы:
робот инопланетянин человек

Внимание! Время в таблицах - всемирное. Для получения местного времени необходимо прибавить поправку, которая равна 8 ч.

Смотрите также архив погоды в соседних городах и на ближайших метеорологических станциях:

Погода в Ньюмане (Западная Австралия, Австралия) (211 км)
Погода в Роборн аэропорту (Западная Австралия, Австралия) (276 км)
Погода в Марди (Западная Австралия, Австралия) (287 км)
Погода в Каррате (Западная Австралия, Австралия) (291 км)
Погода в Марбл-баре (Западная Австралия, Австралия) (302 км)
Погода в Онслоу (Западная Австралия, Австралия) (318 км)
Погода в Порт-Хедленде Apardoo (Западная Австралия, Австралия) (325 км)
Погода на Острове Тевенард (Западная Австралия, Австралия) (340 км)
Погода в Барроу-Айленд (Западная Австралия, Австралия) (352 км)
Погода на Острове Варанас (Западная Австралия, Австралия) (359 км)

Пояснения к столбцам:

Ветер - указаны скорость ветра в м/с - средняя за 10 мин, порывы в срок и между сроками (в фигурных скобках) и направление, откуда дует ветер: С - северный, СВ - северо-восточный, В - восточный, ЮВ - юго-восточный, Ю - южный, ЮЗ - юго-западный, З - западный, СЗ - северо-западный.
Видимость - горизонтальная дальность видимости в метрах или километрах. При видимости от 1 до 10 км при отсутствии осадков обычно наблюдается дымка, при ухудшении видимости до 1 км и менее - туман. В сухую погоду видимость может ухудшаться дымом, пылью или мглою.
Явления - указаны атмосферные явления, наблюдавшиеся в срок или в последний час перед сроком; фигурными скобками обозначены явления, наблюдавшиеся между сроками (за 1-3 часа до срока); квадратными скобками обозначены град или гололедные отложения с указанием их диаметра в мм.
Облачность - указаны через наклонную черту общая и нижняя облачность в баллах и высота нижней границы облаков в метрах; квадратными скобками обозначены формы облаков: Ci - перистые, Cs - перисто-слоистые, Cc - перисто-кучевые, Ac - высококучевые, As - высокослоистые, Sc - слоисто-кучевые, Ns - слоисто-дождевые, Cu - кучевые, Cb - кучево-дождевые. Подробнее классификацию облаков см. в Атласе облаков (PDF).
T - Температура воздуха - температура, измеренная на высоте 2 м над землей.
Td - Температура точки росы - температура, при понижении до которой содержащийся в воздухе водяной пар достигнет насыщения.
f - Относительная влажность воздуха - влажноcть воздуха, измеренная на высоте 2 м над землей.
Te - Эффективная температура - температура, которую ощущает одетый по сезону человек в тени. Характеристика душности погоды. При расчете учитывается влияние влажности воздуха и скорости ветра на теплоощущения человека.
Tes - Эффективная температура на солнце - температура, которую ощущает человек, с поправкой на солнечный нагрев. Характеристика знойности погоды. Зависит от высоты солнца над горизонтом, облачности и скорости ветра. Ночью, в пасмурную погоду, а также при ветре 12 м/с и более поправка равна нулю.
P - Атмосферное давление - приведенное к уровню моря атмосферное давление.
Po - Атмосферное давление - измеренное на уровне метеостанции атмосферное давление.
Tmin - Минимальная температура - минимум температуры воздуха на высоте 2 м над землей.
Tmax - Максимальная температура - максимум температуры воздуха на высоте 2 м над землей.
R - Количество осадков - Количество выпавших осадков за период времени, мм. При наведении курсора мыши на число - период времени, за который выпало указанное количество осадков.
R24 - Количество осадков - Количество выпавших осадков за 24 часа, мм.
S - Снежный покров - Высота снежного покрова, см. При наведении курсора мыши на число - состояние снежного покрова и степень покрытия местности в баллах.